Theta_e
331 331 334 338 340 341 341 339 336 334 334 333 334 334 334 335 334 333 332 329 324 325 326 324 324 326 327 324 322 330 335 335
338 337 333 336 339 341 341 339 336 335 334 334 333 328 329 334 332 332 332 329 324 326 324 327 330 331 330 328 327 333 338 338
340 340 339 339 339 339 338 336 336 335 335 333 330 326 327 333 331 333 329 328 325 326 326 330 331 331 330 329 331 334 336 337
343 341 340 340 340 338 334 335 335 335 336 333 330 333 335 337 335 336 330 326 324 326 326 330 332 332 332 328 330 332 335 338
346 344 342 342 341 340 338 341 339 339 339 339 332 334 337 335 335 333 334 326 326 326 329 330 332 333 335 334 328 328 335 337
345 345 345 343 342 341 340 339 339 340 339 340 339 335 337 335 337 336 334 330 325 331 330 332 333 335 333 334 334 332 335 336
344 344 345 345 343 342 340 338 339 338 338 339 340 337 337 336 336 339 336 332 331 332 333 334 334 334 334 334 333 335 335 336
341 342 345 345 344 343 342 339 339 337 337 339 340 338 339 338 337 336 335 332 333 329 332 332 334 334 333 333 333 335 335 335
341 341 343 344 346 344 342 340 339 339 336 338 339 339 338 340 338 336 336 335 332 332 330 332 331 332 332 333 333 332 333 333
331 336 341 343 344 345 344 342 341 339 340 337 338 341 339 340 340 338 336 335 336 334 335 332 333 332 334 333 333 334 334 333
325 327 329 335 343 341 342 344 343 341 340 339 338 337 339 339 340 338 338 335 334 335 334 334 334 334 333 333 334 334 334 333
321 322 323 326 333 336 342 343 343 341 341 340 339 339 338 338 339 340 338 337 336 334 335 334 334 334 334 332 331 332 332 333
315 318 319 321 322 325 331 332 337 341 341 340 339 340 340 338 338 338 339 338 337 335 334 333 333 334 332 333 332 332 333 332
312 312 311 314 317 318 321 326 332 337 339 340 339 337 339 340 339 339 338 339 338 336 334 335 335 332 335 333 332 333 332 330
313 311 310 309 310 312 315 323 324 325 329 333 335 339 337 337 341 340 339 338 338 336 335 335 337 335 332 335 334 333 332 330
310 310 310 309 308 308 310 311 311 311 313 315 328 334 335 337 336 341 340 339 338 337 336 336 336 336 335 333 333 332 336 338
310 308 307 306 306 307 306 307 308 307 307 309 314 320 324 328 331 335 341 340 340 338 337 337 336 336 335 333 334 334 333 334
308 308 308 306 304 304 305 304 305 306 305 305 307 310 307 308 317 322 332 339 340 340 338 338 337 337 336 335 332 334 334 335
307 305 306 305 306 304 303 303 301 304 304 304 304 304 308 306 304 308 313 322 334 340 341 340 339 337 337 336 336 332 332 336
306 306 305 304 304 304 303 302 301 301 301 302 302 303 302 306 305 304 305 310 317 331 339 341 340 339 338 338 336 336 334 331
Wind_Speed
21 19 16 14 15 15 14 14 13 12 12 12 11 11 10 10 9 9 10 10 10 11 11 9 8 7 5 5 6 4 3 3
16 16 18 17 16 15 14 13 12 12 12 11 11 10 11 11 11 11 10 10 11 12 12 10 8 6 5 4 6 7 4 3
15 15 15 16 15 16 14 13 13 12 12 12 12 10 11 11 11 10 12 12 13 13 14 11 9 8 7 7 7 9 7 9
15 16 16 15 13 14 16 15 14 13 12 12 12 11 11 11 10 13 12 14 15 15 16 14 12 10 9 10 11 12 13 11
18 16 16 16 15 15 15 15 15 13 12 13 13 11 16 14 17 16 15 16 17 18 19 18 16 12 14 18 12 13 10 12
18 18 18 17 15 18 15 17 17 18 18 17 14 17 17 15 18 16 18 18 20 17 20 19 18 16 17 18 16 15 16 15
20 18 21 19 19 16 18 19 20 18 19 22 19 18 17 17 18 18 18 18 19 20 21 21 21 19 20 21 20 14 18 21
22 17 19 17 18 19 14 16 18 19 19 21 25 22 20 19 19 19 19 19 23 21 22 24 24 23 23 24 23 22 21 22
16 16 15 18 16 17 20 15 18 17 21 18 23 26 24 20 22 22 21 20 24 25 22 24 25 24 25 22 26 27 27 26
31 12 11 13 16 14 18 19 17 19 16 22 21 23 25 23 22 23 24 22 20 24 21 25 24 26 23 25 26 26 26 28
37 37 30 18 13 17 21 19 20 19 20 21 24 27 27 27 25 26 23 26 27 23 27 26 24 25 27 27 26 27 27 29
36 36 36 27 15 15 14 20 22 24 24 21 24 25 29 31 30 28 28 27 28 29 26 26 28 26 23 26 30 32 32 30
39 41 37 34 31 27 23 23 21 21 23 25 26 25 26 30 34 32 32 31 29 29 30 29 28 28 28 28 28 25 27 33
34 34 39 36 30 26 18 20 17 18 21 22 29 31 26 27 32 32 32 31 32 31 31 29 29 32 21 20 7 18 30 35
27 29 29 34 31 34 33 18 25 29 29 28 31 29 32 35 31 32 33 33 32 37 36 36 26 29 35 18 4 6 7 27
25 26 27 28 30 31 29 24 21 22 27 31 28 22 21 33 36 36 36 35 35 35 37 37 33 27 25 39 36 19 4 3
21 22 24 26 27 27 27 24 21 25 35 34 38 32 30 27 21 25 38 38 36 38 35 35 36 34 32 27 31 32 32 12
22 22 21 23 24 25 25 26 26 27 31 36 41 42 44 40 37 31 24 30 40 38 43 38 37 37 36 35 32 19 22 17
20 22 22 23 22 23 24 22 24 24 26 26 28 33 38 41 42 39 37 31 27 39 39 40 39 40 38 37 37 38 34 29
17 19 20 22 22 21 21 22 23 21 24 25 25 25 30 33 38 39 39 38 34 27 37 41 38 42 41 40 40 39 40 38
Wind_Direction
158 158 161 170 176 182 186 187 189 190 191 192 194 197 196 195 192 189 184 182 177 174 170 168 165 161 167 178 203 222 279 121
156 163 164 170 177 186 189 194 197 197 199 199 200 202 202 200 197 197 198 195 190 187 184 182 185 196 208 211 204 221 269 236
160 166 167 171 180 187 194 199 200 202 204 206 204 201 209 211 205 214 205 203 202 200 198 199 210 228 239 238 233 231 294 302
169 173 173 177 177 195 191 197 205 208 212 216 205 192 223 206 218 215 226 213 209 210 212 220 230 236 263 250 249 250 290 282
173 181 182 183 190 196 193 195 193 207 210 219 210 211 216 207 215 225 227 224 219 216 219 226 234 241 243 250 251 253 272 265
179 180 187 196 207 187 194 203 200 202 202 211 220 223 224 210 217 229 230 223 221 226 229 236 237 239 250 262 251 244 259 256
176 186 186 194 221 209 193 203 208 209 211 208 213 219 232 216 225 219 219 219 231 218 230 233 239 240 247 260 264 261 260 265
170 182 189 196 208 242 216 210 218 206 218 216 212 215 228 222 228 240 224 220 227 229 227 230 236 234 241 244 251 254 253 257
166 172 191 196 212 227 251 228 230 219 216 226 224 219 227 228 226 228 240 229 223 228 228 238 234 240 238 245 248 245 246 250
27 39 192 200 211 233 230 248 248 238 240 227 233 224 229 241 239 229 233 235 245 228 233 234 243 243 248 244 244 246 246 251
32 35 30 24 222 236 248 244 247 245 244 245 233 232 228 232 243 240 241 232 235 240 232 238 241 243 244 251 250 248 250 249
37 33 27 23 21 9 256 252 246 241 243 251 247 244 227 227 236 246 238 242 235 234 239 231 237 244 249 246 250 247 246 248
39 38 31 27 20 9 354 357 328 273 244 242 250 256 241 229 230 236 245 240 241 235 239 238 235 239 243 258 265 264 251 245
40 38 33 33 27 17 1 348 338 334 300 287 246 243 257 248 236 232 236 246 243 241 237 235 237 234 234 236 256 268 259 256
45 38 35 31 31 26 23 5 359 353 341 336 342 253 242 243 254 243 237 240 245 242 240 236 233 235 232 224 203 228 230 246
36 38 34 28 27 29 34 38 22 5 1 350 330 357 336 247 247 248 245 239 242 247 244 238 236 237 234 229 234 247 217 300
35 37 35 31 28 28 26 18 14 16 15 9 7 347 342 352 1 292 243 240 242 241 247 243 234 235 233 234 228 237 246 248
30 25 31 27 26 26 25 18 6 5 9 11 8 5 2 353 340 328 321 268 235 241 240 246 239 235 237 237 235 226 227 225
24 22 23 21 19 21 20 14 16 3 0 358 357 358 0 354 355 350 338 322 310 246 238 240 243 238 237 238 239 238 238 229
31 19 17 16 12 13 11 11 5 6 4 351 346 350 354 350 349 350 349 347 337 319 262 241 240 241 241 241 240 242 240 240